,,Stat5,,Stat1,,Stat2,,Stat3,,Stat4,,Wind1,,Wind1,
time,status,PA1M_AVG,status,PR1M_SUM,status,RH1M_AVG,status,SR1M_AVG,status,TA1M_AVG,status,W1dAve1m,status,W1sAve1m,
2002-05-13, 00:00:00,VALID,918.55,VALID,0,VALID,97.3223,VALID,0.0339617,VALID,21.374,VALID,85,VALID,0.827303,
2002-05-13, 00:01:00,VALID,918.536,VALID,0,VALID,97.4075,VALID,0.0339617,VALID,21.4357,VALID,85,VALID,0.791667,
2002-05-13, 00:02:00,VALID,918.529,VALID,0,VALID,97.3846,VALID,0.0169808,VALID,21.4709,VALID,85,VALID,0.687717,
2002-05-13, 00:03:00,VALID,918.541,VALID,0,VALID,97.1124,VALID,0.0169808,VALID,21.4936,VALID,85,VALID,0.556858,
2002-05-13, 00:04:00,VALID,918.555,VALID,0,VALID,96.6038,VALID,0.0339617,VALID,21.4483,VALID,85,VALID,0.55013,
2002-05-13, 00:05:00,VALID,918.53,VALID,0,VALID,96.7195,VALID,0.0339617,VALID,21.409,VALID,85,VALID,0.659455,
2002-05-13, 00:06:00,VALID,918.506,VALID,0,VALID,97.0044,VALID,0.0679233,VALID,21.4516,VALID,84,VALID,0.816406,
2002-05-13, 00:07:00,VALID,918.494,VALID,0,VALID,97.0539,VALID,0.0339617,VALID,21.4707,VALID,84,VALID,0.975781,
2002-05-13, 00:08:00,VALID,918.472,VALID,0,VALID,97.1099,VALID,0.0849042,VALID,21.4871,VALID,85,VALID,0.977431,
2002-05-13, 00:09:00,VALID,918.458,VALID,0,VALID,97.101,VALID,0,VALID,21.51,VALID,91,VALID,0.873162,
2002-05-13, 00:10:00,VALID,918.476,VALID,0,VALID,97.1862,VALID,0.0339617,VALID,21.5132,VALID,96,VALID,0.651242,
2002-05-13, 00:11:00,VALID,918.497,VALID,0,VALID,97.1366,VALID,0,VALID,21.5294,VALID,116,VALID,0.707732,
2002-05-13, 00:12:00,VALID,918.491,VALID,0,VALID,97.232,VALID,0.0339617,VALID,21.5359,VALID,114,VALID,0.967634,
2002-05-13, 00:13:00,VALID,918.478,VALID,0,VALID,97.1976,VALID,0.0339617,VALID,21.5553,VALID,115,VALID,1.00703,
2002-05-13, 00:14:00,VALID,918.447,VALID,0,VALID,97.0832,VALID,0,VALID,21.5685,VALID,117,VALID,0.883464,
2002-05-13, 00:15:00,VALID,918.456,VALID,0,VALID,96.8937,VALID,0,VALID,21.5356,VALID,112,VALID,0.633657,
2002-05-13, 00:16:00,VALID,918.441,VALID,0,VALID,97.0082,VALID,0.0169808,VALID,21.5329,VALID,97,VALID,0.9356,
2002-05-13, 00:17:00,VALID,918.443,VALID,0,VALID,97.0158,VALID,0,VALID,21.5396,VALID,102,VALID,0.821957,
2002-05-13, 00:18:00,VALID,918.425,VALID,0,VALID,97.1252,VALID,0.0339617,VALID,21.5423,VALID,129,VALID,0.56435,
2002-05-13, 00:19:00,VALID,918.401,VALID,0,VALID,96.9764,VALID,0.0169808,VALID,21.5359,VALID,143,VALID,0.416385,
2002-05-13, 00:20:00,VALID,918.376,VALID,0,VALID,96.8581,VALID,0,VALID,21.51,VALID,131,VALID,0.472356,
2002-05-13, 00:21:00,VALID,918.355,VALID,0,VALID,96.9039,VALID,0.0169808,VALID,21.5073,VALID,120,VALID,0.520559,
2002-05-13, 00:22:00,VALID,918.351,VALID,0,VALID,96.8823,VALID,0.0169808,VALID,21.4847,VALID,107,VALID,0.551883,
2002-05-13, 00:23:00,VALID,918.342,VALID,0,VALID,96.8963,VALID,0.0169808,VALID,21.458,VALID,103,VALID,0.5627,
2002-05-13, 00:24:00,VALID,918.338,VALID,0,VALID,96.8123,VALID,0,VALID,21.4489,VALID,106,VALID,0.461939,
2002-05-13, 00:25:00,VALID,918.335,VALID,0,VALID,96.8772,VALID,0,VALID,21.4198,VALID,109,VALID,0.533088,
2002-05-13, 00:26:00,VALID,918.312,VALID,0,VALID,97.1124,VALID,0,VALID,21.4227,VALID,107,VALID,0.452097,
2002-05-13, 00:27:00,VALID,918.307,VALID,0,VALID,97.1824,VALID,0.0169808,VALID,21.4494,VALID,106,VALID,0.300042,
2002-05-13, 00:28:00,VALID,918.309,VALID,0,VALID,97.2116,VALID,0,VALID,21.4287,VALID,106,VALID,0.356337,
2002-05-13, 00:29:00,VALID,918.294,VALID,0,VALID,97.1951,VALID,0.0169808,VALID,21.4354,VALID,106,VALID,0.445747,
2002-05-13, 00:30:00,VALID,918.281,VALID,0,VALID,97.1786,VALID,0.0169808,VALID,21.4354,VALID,103,VALID,0.657278,
2002-05-13, 00:31:00,VALID,918.264,VALID,0,VALID,97.2854,VALID,0,VALID,21.4354,VALID,96,VALID,0.768581,
2002-05-13, 00:32:00,VALID,918.244,VALID,0,VALID,97.2917,VALID,0.0339617,VALID,21.4351,VALID,96,VALID,0.732589,
2002-05-13, 00:33:00,VALID,918.227,VALID,0,VALID,97.2104,VALID,0,VALID,21.4424,VALID,96,VALID,0.51478,
2002-05-13, 00:34:00,VALID,918.233,VALID,0,VALID,97.1404,VALID,0.0169808,VALID,21.4365,VALID,96,VALID,0.235978,
2002-05-13, 00:35:00,VALID,918.225,VALID,0,VALID,97.1646,VALID,-0.0169808,VALID,21.4101,VALID,96,VALID,0.0430689,
2002-05-13, 00:36:00,VALID,918.22,VALID,0,VALID,97.1302,VALID,0,VALID,21.3904,VALID,96,VALID,0,
2002-05-13, 00:37:00,VALID,918.193,VALID,0,VALID,97.0565,VALID,0,VALID,21.3807,VALID,96,VALID,0.0298478,
2002-05-13, 00:38:00,VALID,918.169,VALID,0,VALID,96.9853,VALID,0,VALID,21.3716,VALID,97,VALID,0.307675,
2002-05-13, 00:39:00,VALID,918.156,VALID,0,VALID,96.9255,VALID,0,VALID,21.3419,VALID,111,VALID,0.534766,
2002-05-13, 00:40:00,VALID,918.146,VALID,0,VALID,96.9242,VALID,0.0339617,VALID,21.319,VALID,116,VALID,0.636068,
2002-05-13, 00:41:00,VALID,918.128,VALID,0,VALID,96.9357,VALID,0.0339617,VALID,21.2803,VALID,118,VALID,0.57348,
2002-05-13, 00:42:00,VALID,918.11,VALID,0,VALID,97.0082,VALID,0,VALID,21.2614,VALID,117,VALID,0.647171,
2002-05-13, 00:43:00,VALID,918.082,VALID,0,VALID,97.2599,VALID,0.0339617,VALID,21.2646,VALID,115,VALID,0.547697,
2002-05-13, 00:44:00,VALID,918.082,VALID,0,VALID,97.2561,VALID,0,VALID,21.2638,VALID,113,VALID,0.294202,
2002-05-13, 00:45:00,VALID,918.088,VALID,0,VALID,96.9624,VALID,0.0679233,VALID,21.2286,VALID,113,VALID,0.278927,
2002-05-13, 00:46:00,VALID,918.085,VALID,0,VALID,96.3864,VALID,0.0169808,VALID,21.0993,VALID,96,VALID,0.311699,
2002-05-13, 00:47:00,VALID,918.082,VALID,0,VALID,96.1473,VALID,0,VALID,20.97,VALID,56,VALID,0.576275,
2002-05-13, 00:48:00,VALID,918.07,VALID,0,VALID,96.1651,VALID,0,VALID,20.8954,VALID,41,VALID,0.724159,
2002-05-13, 00:49:00,VALID,918.055,VALID,0,VALID,96.2808,VALID,0.0509425,VALID,20.8343,VALID,37,VALID,0.684896,
2002-05-13, 00:50:00,VALID,918.028,VALID,0,VALID,96.3978,VALID,0.0169808,VALID,20.7632,VALID,37,VALID,0.58734,
2002-05-13, 00:51:00,VALID,918.008,VALID,0,VALID,96.8556,VALID,0.0169808,VALID,20.7672,VALID,37,VALID,0.410386,
2002-05-13, 00:52:00,VALID,917.999,VALID,0,VALID,97.396,VALID,0.0169808,VALID,20.7987,VALID,37,VALID,0.272204,
2002-05-13, 00:53:00,VALID,917.985,VALID,0,VALID,97.7648,VALID,0.0169808,VALID,20.8607,VALID,38,VALID,0.291596,
2002-05-13, 00:54:00,VALID,917.986,VALID,0,VALID,97.9568,VALID,0.0169808,VALID,20.9124,VALID,112,VALID,0.513889,
2002-05-13, 00:55:00,VALID,917.989,VALID,0,VALID,97.9987,VALID,0,VALID,20.938,VALID,132,VALID,0.53559,
2002-05-13, 00:56:00,VALID,917.992,VALID,0,VALID,98.0305,VALID,0.0509425,VALID,20.9539,VALID,128,VALID,0.599095,
2002-05-13, 00:57:00,VALID,917.971,VALID,0,VALID,98.1539,VALID,0.0169808,VALID,20.9837,VALID,112,VALID,0.793497,
2002-05-13, 00:58:00,VALID,917.963,VALID,0,VALID,98.3217,VALID,0.0509425,VALID,21.0249,VALID,103,VALID,1.01429,
2002-05-13, 00:59:00,VALID,917.951,VALID,0,VALID,98.3662,VALID,0.0339617,VALID,21.0567,VALID,103,VALID,1.03294,
2002-05-13, 01:00:00,VALID,917.96,VALID,0,VALID,98.3154,VALID,0.0509425,VALID,21.074,VALID,112,VALID,1.17588,
2002-05-13, 01:01:00,VALID,917.946,VALID,0,VALID,98.2035,VALID,0.0169808,VALID,21.0705,VALID,100,VALID,1.04688,
2002-05-13, 01:02:00,VALID,917.938,VALID,0,VALID,98.1552,VALID,0.0849042,VALID,21.0476,VALID,103,VALID,0.937099,
2002-05-13, 01:03:00,VALID,917.916,VALID,0,VALID,98.178,VALID,0.0679233,VALID,21.0185,VALID,104,VALID,0.942508,
2002-05-13, 01:04:00,VALID,917.911,VALID,0,VALID,98.2098,VALID,0.0849042,VALID,21.0449,VALID,100,VALID,0.96921,
2002-05-13, 01:05:00,VALID,917.889,VALID,0,VALID,98.178,VALID,0.0679233,VALID,21.0284,VALID,116,VALID,0.721289,
2002-05-13, 01:06:00,VALID,917.878,VALID,0,VALID,98.117,VALID,0.0339617,VALID,21.0058,VALID,125,VALID,0.596354,
2002-05-13, 01:07:00,VALID,917.869,VALID,0,VALID,98.0954,VALID,0.0339617,VALID,20.9961,VALID,132,VALID,0.781461,
2002-05-13, 01:08:00,VALID,917.85,VALID,0,VALID,98.0483,VALID,0.0339617,VALID,20.97,VALID,126,VALID,0.699324,
2002-05-13, 01:09:00,VALID,917.843,VALID,0,VALID,98.0127,VALID,0,VALID,20.9573,VALID,127,VALID,0.815378,
2002-05-13, 01:10:00,VALID,917.837,VALID,0,VALID,98.0153,VALID,0.0169808,VALID,20.9477,VALID,130,VALID,0.641447,
2002-05-13, 01:11:00,VALID,917.819,VALID,0,VALID,98.0433,VALID,0,VALID,20.9377,VALID,121,VALID,0.833193,
2002-05-13, 01:12:00,VALID,917.799,VALID,0,VALID,98.0509,VALID,0.0339617,VALID,20.9606,VALID,123,VALID,1.13602,
2002-05-13, 01:13:00,VALID,917.786,VALID,0,VALID,98.0445,VALID,-0.0169808,VALID,20.967,VALID,114,VALID,1.02632,
2002-05-13, 01:14:00,VALID,917.8,VALID,0,VALID,97.9619,VALID,0,VALID,20.9705,VALID,113,VALID,1.01943,
2002-05-13, 01:15:00,VALID,917.792,VALID,0,VALID,97.9085,VALID,0.0169808,VALID,20.9743,VALID,116,VALID,1.04968,
2002-05-13, 01:16:00,VALID,917.766,VALID,0,VALID,97.8207,VALID,0.0169808,VALID,20.9608,VALID,120,VALID,0.892428,
2002-05-13, 01:17:00,VALID,917.739,VALID,0,VALID,97.7304,VALID,0,VALID,20.9541,VALID,124,VALID,0.715763,
2002-05-13, 01:18:00,VALID,917.712,VALID,0,VALID,97.6605,VALID,0,VALID,20.935,VALID,124,VALID,0.879112,
2002-05-13, 01:19:00,VALID,917.687,VALID,0,VALID,97.6681,VALID,0.0169808,VALID,20.932,VALID,125,VALID,0.778294,
2002-05-13, 01:20:00,VALID,917.671,VALID,0,VALID,97.6999,VALID,-0.0169808,VALID,20.9256,VALID,126,VALID,0.854818,
2002-05-13, 01:21:00,VALID,917.679,VALID,0,VALID,97.7241,VALID,0,VALID,20.9285,VALID,132,VALID,0.821181,
2002-05-13, 01:22:00,VALID,917.654,VALID,0,VALID,97.7648,VALID,0,VALID,20.9449,VALID,123,VALID,0.729235,
2002-05-13, 01:23:00,VALID,917.639,VALID,0,VALID,97.8118,VALID,0,VALID,20.9614,VALID,126,VALID,0.669764,
2002-05-13, 01:24:00,VALID,917.631,VALID,0,VALID,97.761,VALID,0,VALID,20.9573,VALID,111,VALID,0.497321,
2002-05-13, 01:25:00,VALID,917.622,VALID,0,VALID,97.7635,VALID,0,VALID,20.9544,VALID,115,VALID,0.709248,
2002-05-13, 01:26:00,VALID,917.618,VALID,0,VALID,97.6885,VALID,0,VALID,20.9549,VALID,105,VALID,0.797075,
2002-05-13, 01:27:00,VALID,917.595,VALID,0,VALID,97.6923,VALID,0.0169808,VALID,20.9519,VALID,97,VALID,0.762019,
2002-05-13, 01:28:00,VALID,917.578,VALID,0,VALID,97.6758,VALID,0,VALID,20.9449,VALID,99,VALID,0.797676,
2002-05-13, 01:29:00,VALID,917.55,VALID,0,VALID,97.6224,VALID,0,VALID,20.928,VALID,89,VALID,0.888421,
2002-05-13, 01:30:00,VALID,917.55,VALID,0,VALID,97.541,VALID,0.0169808,VALID,20.9089,VALID,112,VALID,0.647289,
2002-05-13, 01:31:00,VALID,917.555,VALID,0,VALID,97.5511,VALID,0,VALID,20.8967,VALID,123,VALID,0.429102,
2002-05-13, 01:32:00,VALID,917.555,VALID,0,VALID,97.6541,VALID,0,VALID,20.897,VALID,123,VALID,0.779297,
2002-05-13, 01:33:00,VALID,917.529,VALID,0,VALID,97.6694,VALID,0,VALID,20.9164,VALID,126,VALID,0.941301,
2002-05-13, 01:34:00,VALID,917.511,VALID,0,VALID,97.6198,VALID,0.0169808,VALID,20.9159,VALID,125,VALID,1.03442,
2002-05-13, 01:35:00,VALID,917.503,VALID,0,VALID,97.56,VALID,0,VALID,20.9191,VALID,113,VALID,0.736842,
2002-05-13, 01:36:00,VALID,917.499,VALID,0,VALID,97.527,VALID,0,VALID,20.9156,VALID,127,VALID,0.614104,
2002-05-13, 01:37:00,VALID,917.505,VALID,0,VALID,97.4685,VALID,0,VALID,20.9124,VALID,125,VALID,0.627111,
2002-05-13, 01:38:00,VALID,917.485,VALID,0,VALID,97.4176,VALID,0,VALID,20.9261,VALID,124,VALID,0.485377,
2002-05-13, 01:39:00,VALID,917.488,VALID,0,VALID,97.3947,VALID,0,VALID,20.9124,VALID,138,VALID,0.415296,
2002-05-13, 01:40:00,VALID,917.48,VALID,0,VALID,97.3986,VALID,0,VALID,20.9226,VALID,127,VALID,0.63762,
2002-05-13, 01:41:00,VALID,917.491,VALID,0,VALID,97.4291,VALID,0.0169808,VALID,20.9422,VALID,115,VALID,0.546474,
2002-05-13, 01:42:00,VALID,917.495,VALID,0,VALID,97.3617,VALID,0,VALID,20.9417,VALID,110,VALID,0.665865,
2002-05-13, 01:43:00,VALID,917.495,VALID,0,VALID,97.3197,VALID,0,VALID,20.9452,VALID,105,VALID,0.744485,
2002-05-13, 01:44:00,VALID,917.482,VALID,0,VALID,97.2892,VALID,0,VALID,20.9554,VALID,100,VALID,0.905222,
2002-05-13, 01:45:00,VALID,917.483,VALID,0,VALID,97.2065,VALID,-0.0169808,VALID,20.9748,VALID,99,VALID,0.80701,
2002-05-13, 01:46:00,VALID,917.471,VALID,0,VALID,97.1264,VALID,0,VALID,20.9805,VALID,101,VALID,0.747179,
2002-05-13, 01:47:00,VALID,917.458,VALID,0,VALID,97.0412,VALID,0,VALID,20.9937,VALID,95,VALID,0.671007,
2002-05-13, 01:48:00,VALID,917.447,VALID,0,VALID,96.8645,VALID,0,VALID,20.9872,VALID,85,VALID,0.534539,
2002-05-13, 01:49:00,VALID,917.437,VALID,0,VALID,96.6598,VALID,0,VALID,20.9614,VALID,86,VALID,0.556377,
2002-05-13, 01:50:00,VALID,917.431,VALID,0,VALID,96.6305,VALID,0,VALID,20.9385,VALID,94,VALID,0.581027,
2002-05-13, 01:51:00,VALID,917.418,VALID,0,VALID,96.75,VALID,-0.0169808,VALID,20.939,VALID,109,VALID,0.723818,
2002-05-13, 01:52:00,VALID,917.419,VALID,0,VALID,96.7818,VALID,-0.0169808,VALID,20.9584,VALID,115,VALID,0.883213,
2002-05-13, 01:53:00,VALID,917.411,VALID,0,VALID,96.6432,VALID,-0.0169808,VALID,20.9584,VALID,111,VALID,0.8127,
2002-05-13, 01:54:00,VALID,917.407,VALID,0,VALID,96.5339,VALID,0,VALID,20.9546,VALID,100,VALID,0.78766,
2002-05-13, 01:55:00,VALID,917.403,VALID,0,VALID,96.4499,VALID,0,VALID,20.9614,VALID,86,VALID,0.688301,
2002-05-13, 01:56:00,VALID,917.381,VALID,0,VALID,96.4232,VALID,0,VALID,20.9546,VALID,97,VALID,0.838695,
2002-05-13, 01:57:00,VALID,917.368,VALID,0,VALID,96.3775,VALID,-0.0169808,VALID,20.9746,VALID,94,VALID,0.803711,
2002-05-13, 01:58:00,VALID,917.357,VALID,0,VALID,96.3164,VALID,0,VALID,20.9743,VALID,106,VALID,0.936849,
2002-05-13, 01:59:00,VALID,917.36,VALID,0,VALID,96.3355,VALID,0.0339617,VALID,21.0069,VALID,106,VALID,0.992188,
2002-05-13, 02:00:00,VALID,917.365,VALID,0,VALID,96.1969,VALID,0.0169808,VALID,21.0064,VALID,110,VALID,0.847973,
2002-05-13, 02:01:00,VALID,917.348,VALID,0,VALID,96.1091,VALID,0,VALID,20.9999,VALID,111,VALID,0.778783,
2002-05-13, 02:02:00,VALID,917.326,VALID,0,VALID,96.0697,VALID,0,VALID,20.9942,VALID,105,VALID,0.857936,
2002-05-13, 02:03:00,VALID,917.301,VALID,0,VALID,96.0634,VALID,0.0169808,VALID,20.9775,VALID,107,VALID,0.82897,
2002-05-13, 02:04:00,VALID,917.294,VALID,0,VALID,96.071,VALID,0,VALID,20.9511,VALID,110,VALID,0.852965,
2002-05-13, 02:05:00,VALID,917.263,VALID,0,VALID,96.1562,VALID,0,VALID,20.932,VALID,114,VALID,1.21525,
2002-05-13, 02:06:00,VALID,917.248,VALID,0,VALID,96.1689,VALID,0,VALID,20.9261,VALID,115,VALID,1.13241,
2002-05-13, 02:07:00,VALID,917.232,VALID,0,VALID,96.2312,VALID,0,VALID,20.9029,VALID,106,VALID,1.17608,
2002-05-13, 02:08:00,VALID,917.214,VALID,0,VALID,96.3037,VALID,-0.0339617,VALID,20.887,VALID,105,VALID,1.0641,
2002-05-13, 02:09:00,VALID,917.196,VALID,0,VALID,96.3889,VALID,0,VALID,20.8811,VALID,100,VALID,0.966452,
2002-05-13, 02:10:00,VALID,917.191,VALID,0,VALID,96.3749,VALID,-0.0339617,VALID,20.8779,VALID,89,VALID,1.00103,
2002-05-13, 02:11:00,VALID,917.169,VALID,0,VALID,96.394,VALID,0.0169808,VALID,20.8781,VALID,98,VALID,1.06292,
2002-05-13, 02:12:00,VALID,917.155,VALID,0,VALID,96.4067,VALID,0,VALID,20.8555,VALID,116,VALID,1.26237,
2002-05-13, 02:13:00,VALID,917.131,VALID,0,VALID,96.4423,VALID,0,VALID,20.8324,VALID,113,VALID,1.24523,
2002-05-13, 02:14:00,VALID,917.117,VALID,0,VALID,96.5606,VALID,0,VALID,20.8194,VALID,106,VALID,0.915502,
2002-05-13, 02:15:00,VALID,917.123,VALID,0,VALID,96.6737,VALID,-0.0169808,VALID,20.813,VALID,86,VALID,0.522171,
2002-05-13, 02:16:00,VALID,917.125,VALID,0,VALID,96.6152,VALID,0,VALID,20.8003,VALID,72,VALID,0.582812,
2002-05-13, 02:17:00,VALID,917.103,VALID,0,VALID,96.4448,VALID,0,VALID,20.7613,VALID,79,VALID,0.951647,
2002-05-13, 02:18:00,VALID,917.073,VALID,0,VALID,96.6508,VALID,0,VALID,20.7486,VALID,88,VALID,1.25601,
2002-05-13, 02:19:00,VALID,917.062,VALID,0,VALID,96.8098,VALID,0,VALID,20.7621,VALID,101,VALID,1.26382,
2002-05-13, 02:20:00,VALID,917.041,VALID,0,VALID,96.792,VALID,0,VALID,20.7516,VALID,99,VALID,0.857572,
2002-05-13, 02:21:00,VALID,917.051,VALID,0,VALID,96.7767,VALID,-0.0169808,VALID,20.7327,VALID,92,VALID,0.49082,
2002-05-13, 02:22:00,VALID,917.079,VALID,0,VALID,96.8441,VALID,0,VALID,20.723,VALID,90,VALID,0.293658,
2002-05-13, 02:23:00,VALID,917.098,VALID,0,VALID,96.9382,VALID,0,VALID,20.7227,VALID,85,VALID,0.64082,
2002-05-13, 02:24:00,VALID,917.067,VALID,0,VALID,96.8556,VALID,-0.0339617,VALID,20.7096,VALID,80,VALID,0.953993,
2002-05-13, 02:25:00,VALID,917.032,VALID,0,VALID,96.8123,VALID,0,VALID,20.7004,VALID,75,VALID,1.1875,
2002-05-13, 02:26:00,VALID,917.019,VALID,0,VALID,96.9192,VALID,-0.0169808,VALID,20.6872,VALID,81,VALID,1.11043,
2002-05-13, 02:27:00,VALID,917.012,VALID,0,VALID,97.0069,VALID,0,VALID,20.6904,VALID,92,VALID,1.09601,
2002-05-13, 02:28:00,VALID,917.023,VALID,0,VALID,96.9039,VALID,0.0169808,VALID,20.6807,VALID,114,VALID,0.662418,
2002-05-13, 02:29:00,VALID,917.046,VALID,0,VALID,96.9611,VALID,-0.0169808,VALID,20.6549,VALID,120,VALID,0.531883,
2002-05-13, 02:30:00,VALID,917.037,VALID,0,VALID,97.1201,VALID,0.0169808,VALID,20.671,VALID,123,VALID,0.288261,
2002-05-13, 02:31:00,VALID,917.025,VALID,0,VALID,96.9509,VALID,0,VALID,20.6678,VALID,123,VALID,0.00925164,
2002-05-13, 02:32:00,VALID,917.004,VALID,0,VALID,96.6038,VALID,0,VALID,20.6096,VALID,122,VALID,0,
2002-05-13, 02:33:00,VALID,917.01,VALID,0,VALID,96.7996,VALID,0,VALID,20.5838,VALID,108,VALID,0.382612,
2002-05-13, 02:34:00,VALID,916.997,VALID,0,VALID,97.1455,VALID,0,VALID,20.6064,VALID,107,VALID,0.878405,
2002-05-13, 02:35:00,VALID,916.986,VALID,0,VALID,97.2294,VALID,0,VALID,20.6581,VALID,107,VALID,0.931296,
2002-05-13, 02:36:00,VALID,916.971,VALID,0,VALID,97.307,VALID,-0.0169808,VALID,20.6969,VALID,115,VALID,1.12664,
2002-05-13, 02:37:00,VALID,916.952,VALID,0,VALID,97.204,VALID,0.0169808,VALID,20.7389,VALID,117,VALID,0.990498,
2002-05-13, 02:38:00,VALID,916.96,VALID,0,VALID,96.9916,VALID,0,VALID,20.7384,VALID,122,VALID,0.524306,
2002-05-13, 02:39:00,VALID,916.978,VALID,0,VALID,96.956,VALID,0,VALID,20.7481,VALID,122,VALID,0.198134,
2002-05-13, 02:40:00,VALID,916.979,VALID,0,VALID,96.7755,VALID,0.0169808,VALID,20.7384,VALID,122,VALID,0.325247,
2002-05-13, 02:41:00,VALID,916.969,VALID,0,VALID,96.7195,VALID,0,VALID,20.7292,VALID,114,VALID,0.845017,
2002-05-13, 02:42:00,VALID,916.944,VALID,0,VALID,96.8518,VALID,0.0339617,VALID,20.7058,VALID,117,VALID,1.20558,
2002-05-13, 02:43:00,VALID,916.926,VALID,0,VALID,96.9331,VALID,0,VALID,20.723,VALID,119,VALID,1.37162,
2002-05-13, 02:44:00,VALID,916.941,VALID,0,VALID,97.0285,VALID,0,VALID,20.7268,VALID,123,VALID,1.4353,
2002-05-13, 02:45:00,VALID,916.932,VALID,0,VALID,97.0552,VALID,0,VALID,20.723,VALID,127,VALID,1.16727,
2002-05-13, 02:46:00,VALID,916.936,VALID,0,VALID,97.0603,VALID,0,VALID,20.729,VALID,124,VALID,1.07813,
2002-05-13, 02:47:00,VALID,916.917,VALID,0,VALID,97.0463,VALID,0.0169808,VALID,20.7322,VALID,122,VALID,1.35737,
2002-05-13, 02:48:00,VALID,916.912,VALID,0,VALID,96.9204,VALID,0,VALID,20.7451,VALID,114,VALID,1.12339,
2002-05-13, 02:49:00,VALID,916.909,VALID,0,VALID,96.8111,VALID,0.0339617,VALID,20.726,VALID,130,VALID,0.669922,
2002-05-13, 02:50:00,VALID,916.923,VALID,0,VALID,96.8416,VALID,0.0169808,VALID,20.723,VALID,128,VALID,0.844618,
2002-05-13, 02:51:00,VALID,916.915,VALID,0,VALID,96.8797,VALID,0,VALID,20.7138,VALID,137,VALID,0.462204,
2002-05-13, 02:52:00,VALID,916.909,VALID,0,VALID,96.8403,VALID,0,VALID,20.7036,VALID,100,VALID,0.445946,
2002-05-13, 02:53:00,VALID,916.896,VALID,0,VALID,96.8581,VALID,0,VALID,20.6775,VALID,98,VALID,1.07607,
2002-05-13, 02:54:00,VALID,916.861,VALID,0,VALID,96.6979,VALID,-0.101885,VALID,20.6403,VALID,85,VALID,1.09848,
2002-05-13, 02:55:00,VALID,916.854,VALID,0,VALID,96.8073,VALID,-0.101885,VALID,20.6115,VALID,84,VALID,1.11128,
2002-05-13, 02:56:00,VALID,916.852,VALID,0,VALID,96.8454,VALID,-0.101885,VALID,20.5853,VALID,75,VALID,0.802083,
2002-05-13, 02:57:00,VALID,916.86,VALID,0,VALID,96.9306,VALID,-0.101885,VALID,20.5466,VALID,82,VALID,0.834704,
2002-05-13, 02:58:00,VALID,916.854,VALID,0,VALID,97.0896,VALID,-0.101885,VALID,20.5205,VALID,91,VALID,0.838542,
2002-05-13, 02:59:00,VALID,916.851,VALID,0,VALID,97.1646,VALID,-0.101885,VALID,20.5274,VALID,91,VALID,0.852163,
2002-05-13, 03:00:00,VALID,916.841,VALID,0,VALID,97.265,VALID,-0.101885,VALID,20.5142,VALID,102,VALID,0.929087,
2002-05-13, 03:01:00,VALID,916.808,VALID,0,VALID,97.2867,VALID,-0.101885,VALID,20.5212,VALID,98,VALID,1.0756,
2002-05-13, 03:02:00,VALID,916.782,VALID,0,VALID,97.3019,VALID,-0.135847,VALID,20.4857,VALID,87,VALID,0.978207,
2002-05-13, 03:03:00,VALID,916.79,VALID,0,VALID,97.2727,VALID,-0.0849042,VALID,20.4819,VALID,78,VALID,1.11085,
2002-05-13, 03:04:00,VALID,916.799,VALID,0,VALID,97.1964,VALID,0,VALID,20.4516,VALID,72,VALID,1.11263,
2002-05-13, 03:05:00,VALID,916.777,VALID,0,VALID,97.2091,VALID,0.0169808,VALID,20.4249,VALID,77,VALID,1.10135,
2002-05-13, 03:06:00,VALID,916.76,VALID,0,VALID,97.2167,VALID,0.0169808,VALID,20.4195,VALID,80,VALID,1.16859,
2002-05-13, 03:07:00,VALID,916.748,VALID,0,VALID,97.2943,VALID,0,VALID,20.3929,VALID,84,VALID,1.02787,
2002-05-13, 03:08:00,VALID,916.772,VALID,0,VALID,97.3629,VALID,0.0169808,VALID,20.3902,VALID,89,VALID,1.06964,
2002-05-13, 03:09:00,VALID,916.778,VALID,0,VALID,97.3172,VALID,-0.101885,VALID,20.3753,VALID,88,VALID,1.12986,
2002-05-13, 03:10:00,VALID,916.792,VALID,0,VALID,97.2282,VALID,-0.101885,VALID,20.3823,VALID,91,VALID,1.22175,
2002-05-13, 03:11:00,VALID,916.791,VALID,0,VALID,97.2676,VALID,-0.101885,VALID,20.379,VALID,94,VALID,1.35597,
2002-05-13, 03:12:00,VALID,916.789,VALID,0,VALID,97.2383,VALID,-0.101885,VALID,20.3885,VALID,102,VALID,1.06971,
2002-05-13, 03:13:00,VALID,916.795,VALID,0,VALID,97.2917,VALID,-0.101885,VALID,20.4216,VALID,109,VALID,0.958333,
2002-05-13, 03:14:00,VALID,916.807,VALID,0,VALID,97.246,VALID,-0.101885,VALID,20.4307,VALID,110,VALID,0.945083,
2002-05-13, 03:15:00,VALID,916.833,VALID,0,VALID,97.2091,VALID,-0.101885,VALID,20.4603,VALID,112,VALID,0.884766,
2002-05-13, 03:16:00,VALID,916.83,VALID,0,VALID,97.0578,VALID,-0.101885,VALID,20.4698,VALID,107,VALID,0.917752,
2002-05-13, 03:17:00,VALID,916.84,VALID,0,VALID,96.9904,VALID,-0.118866,VALID,20.476,VALID,111,VALID,0.912162,
2002-05-13, 03:18:00,VALID,916.852,VALID,0,VALID,96.8912,VALID,-0.118866,VALID,20.4859,VALID,115,VALID,1.08742,
2002-05-13, 03:19:00,VALID,916.852,VALID,0,VALID,96.7386,VALID,-0.101885,VALID,20.483,VALID,115,VALID,1.0074,
2002-05-13, 03:20:00,VALID,916.862,VALID,0,VALID,96.661,VALID,-0.101885,VALID,20.4596,VALID,117,VALID,0.974918,
2002-05-13, 03:21:00,VALID,916.867,VALID,0,VALID,96.6445,VALID,-0.118866,VALID,20.4566,VALID,113,VALID,1.02618,
2002-05-13, 03:22:00,VALID,916.843,VALID,0,VALID,96.6598,VALID,-0.101885,VALID,20.4464,VALID,99,VALID,1.08474,
2002-05-13, 03:23:00,VALID,916.402,VALID,0,VALID,96.6572,VALID,-0.0849042,VALID,20.4765,VALID,97,VALID,1.08203,
2002-05-13, 03:24:00,VALID,916.805,VALID,0,VALID,96.5784,VALID,0,VALID,20.4737,VALID,90,VALID,0.989984,
2002-05-13, 03:25:00,VALID,916.78,VALID,0,VALID,96.4181,VALID,0,VALID,20.4841,VALID,92,VALID,0.991186,
2002-05-13, 03:26:00,VALID,916.762,VALID,0,VALID,96.4105,VALID,0,VALID,20.4841,VALID,91,VALID,0.904647,
2002-05-13, 03:27:00,VALID,916.761,VALID,0,VALID,96.2516,VALID,0.0169808,VALID,20.4585,VALID,99,VALID,0.960248,
2002-05-13, 03:28:00,VALID,916.761,VALID,0,VALID,96.5097,VALID,0.0339617,VALID,20.4513,VALID,103,VALID,1.33224,
2002-05-13, 03:29:00,VALID,916.741,VALID,0,VALID,96.4703,VALID,0,VALID,20.4874,VALID,95,VALID,1.01056,
2002-05-13, 03:30:00,VALID,916.74,VALID,0,VALID,96.441,VALID,-0.0169808,VALID,20.5005,VALID,90,VALID,1.3201,
2002-05-13, 03:31:00,VALID,916.737,VALID,0,VALID,96.3113,VALID,0.0169808,VALID,20.5127,VALID,86,VALID,1.16732,
2002-05-13, 03:32:00,VALID,916.719,VALID,0,VALID,95.9871,VALID,0,VALID,20.5127,VALID,83,VALID,1.1176,
2002-05-13, 03:33:00,VALID,916.709,VALID,0,VALID,95.8218,VALID,0,VALID,20.4844,VALID,72,VALID,1.18053,
2002-05-13, 03:34:00,VALID,916.701,VALID,0,VALID,95.6882,VALID,0,VALID,20.4389,VALID,68,VALID,1.13929,
2002-05-13, 03:35:00,VALID,916.682,VALID,0,VALID,95.7544,VALID,0,VALID,20.3904,VALID,73,VALID,1.25676,
2002-05-13, 03:36:00,VALID,916.679,VALID,0,VALID,96.0456,VALID,0,VALID,20.3743,VALID,78,VALID,1.26402,
2002-05-13, 03:37:00,VALID,916.658,VALID,0,VALID,96.2109,VALID,0,VALID,20.3549,VALID,91,VALID,1.27684,